• In Belarus
  • List of Countries
  • For 7 days
  • Water Temperature
  • Satellite Maps
  • Weather Map
  • Weather Widgets
  • user-avatar
    Login

    Hourly Weather Cherneyka

    Today, 16 July, Monday

    Time Temperature Precipitation Wind Pressure Humidity
    00:00 +19°C° 0 mm 1 mps 743 mmHg 95%
    01:00 +19°C° 0 mm 1 mps 742 mmHg 96%
    02:00 +19°C° 0 mm 1 mps 743 mmHg 97%
    03:00 +19°C° 0 mm 1 mps 743 mmHg 97%
    04:00 +18°C° 0 mm 2 mps 743 mmHg 97%
    05:00 +18°C° 0 mm 2 mps 743 mmHg 97%
    06:00 +19°C° 0.1 mm 2 mps 743 mmHg 93%
    07:00 +21°C° 0.1 mm 2 mps 743 mmHg 89%
    08:00 +22°C° 0.1 mm 3 mps 743 mmHg 86%
    09:00 +25°C° 0.5 mm 3 mps 743 mmHg 81%
    10:00 +26°C° 0.5 mm 3 mps 742 mmHg 76%
    11:00 +27°C° 0.5 mm 4 mps 742 mmHg 71%
    12:00 +27°C° 0.7 mm 3 mps 742 mmHg 74%
    13:00 +27°C° 0.7 mm 3 mps 742 mmHg 76%
    14:00 +27°C° 0.7 mm 3 mps 742 mmHg 78%
    15:00 +27°C° 0.3 mm 3 mps 742 mmHg 78%
    16:00 +26°C° 0.3 mm 3 mps 742 mmHg 78%
    17:00 +26°C° 0.3 mm 3 mps 742 mmHg 78%
    18:00 +25°C° 0.2 mm 3 mps 741 mmHg 81%
    19:00 +24°C° 0.2 mm 3 mps 741 mmHg 85%
    20:00 +22°C° 0.2 mm 3 mps 741 mmHg 88%
    21:00 +22°C° 0.3 mm 3 mps 741 mmHg 89%
    22:00 +21°C° 0.3 mm 3 mps 741 mmHg 91%
    23:00 +20°C° 0.3 mm 3 mps 741 mmHg 92%

    Tomorrow, 17 July, Tuesday

    Time Temperature Precipitation Wind Pressure Humidity
    00:00 +20°C° 0.1 mm 3 mps 741 mmHg 93%
    01:00 +20°C° 0.1 mm 3 mps 741 mmHg 94%
    02:00 +20°C° 0.1 mm 3 mps 741 mmHg 95%
    03:00 +20°C° 0 mm 3 mps 741 mmHg 95%
    04:00 +20°C° 0 mm 3 mps 741 mmHg 95%
    05:00 +20°C° 0 mm 4 mps 741 mmHg 95%
    06:00 +21°C° 0 mm 4 mps 741 mmHg 89%
    07:00 +23°C° 0 mm 4 mps 741 mmHg 84%
    08:00 +25°C° 0 mm 5 mps 741 mmHg 78%
    09:00 +26°C° 0 mm 5 mps 741 mmHg 71%
    10:00 +28°C° 0 mm 5 mps 740 mmHg 65%
    11:00 +29°C° 0 mm 5 mps 740 mmHg 58%
    12:00 +30°C° 0.1 mm 5 mps 740 mmHg 57%
    13:00 +30°C° 0.1 mm 5 mps 740 mmHg 56%
    14:00 +32°C° 0.1 mm 5 mps 740 mmHg 55%
    15:00 +30°C° 0.2 mm 5 mps 740 mmHg 57%
    16:00 +30°C° 0.2 mm 4 mps 740 mmHg 60%
    17:00 +29°C° 0.2 mm 4 mps 740 mmHg 62%
    18:00 +28°C° 0.1 mm 4 mps 740 mmHg 67%
    19:00 +26°C° 0.1 mm 3 mps 740 mmHg 73%
    20:00 +24°C° 0.1 mm 3 mps 740 mmHg 79%
    21:00 +24°C° 0 mm 3 mps 740 mmHg 80%
    22:00 +22°C° 0 mm 3 mps 740 mmHg 81%
    23:00 +21°C° 0 mm 3 mps 740 mmHg 83%

    Day after tomorrow, 18 July, Wednesday

    Time Temperature Precipitation Wind Pressure Humidity
    00:00 +21°C° 0 mm 3 mps 739 mmHg 85%
    01:00 +20°C° 0 mm 3 mps 739 mmHg 86%
    02:00 +20°C° 0 mm 3 mps 739 mmHg 88%
    03:00 +20°C° 0 mm 3 mps 739 mmHg 88%
    04:00 +20°C° 0 mm 3 mps 739 mmHg 88%
    05:00 +20°C° 0 mm 3 mps 739 mmHg 87%
    06:00 +21°C° 0 mm 4 mps 739 mmHg 83%
    07:00 +22°C° 0 mm 4 mps 739 mmHg 79%
    08:00 +23°C° 0 mm 4 mps 739 mmHg 75%
    09:00 +23°C° 0 mm 4 mps 739 mmHg 75%
    10:00 +23°C° 0 mm 4 mps 739 mmHg 75%
    11:00 +25°C° 0 mm 4 mps 739 mmHg 76%
    12:00 +25°C° 0.1 mm 4 mps 739 mmHg 72%
    13:00 +26°C° 0.1 mm 4 mps 739 mmHg 68%
    14:00 +27°C° 0.1 mm 4 mps 739 mmHg 64%
    15:00 +27°C° 0.3 mm 4 mps 739 mmHg 67%
    16:00 +26°C° 0.3 mm 4 mps 739 mmHg 70%
    17:00 +26°C° 0.3 mm 4 mps 739 mmHg 73%
    18:00 +23°C° 0.5 mm 4 mps 739 mmHg 78%
    19:00 +22°C° 0.5 mm 3 mps 738 mmHg 83%
    20:00 +21°C° 0.5 mm 3 mps 738 mmHg 89%
    21:00 +20°C° 0.2 mm 3 mps 738 mmHg 91%
    22:00 +20°C° 0.2 mm 3 mps 738 mmHg 93%
    23:00 +19°C° 0.2 mm 3 mps 738 mmHg 95%

    19 July, Thursday

    Time Temperature Precipitation Wind Pressure Humidity
    00:00 +19°C° 0.1 mm 3 mps 738 mmHg 95%
    01:00 +19°C° 0.1 mm 3 mps 738 mmHg 96%
    02:00 +19°C° 0.1 mm 3 mps 738 mmHg 97%
    03:00 +19°C° 0.2 mm 3 mps 738 mmHg 97%
    04:00 +19°C° 0.2 mm 3 mps 738 mmHg 97%
    05:00 +19°C° 0.2 mm 3 mps 738 mmHg 97%
    06:00 +19°C° 0.2 mm 3 mps 738 mmHg 96%
    07:00 +20°C° 0.2 mm 3 mps 739 mmHg 94%
    08:00 +20°C° 0.2 mm 3 mps 739 mmHg 93%
    09:00 +21°C° 0.4 mm 4 mps 739 mmHg 90%
    10:00 +22°C° 0.4 mm 4 mps 739 mmHg 88%
    11:00 +22°C° 0.4 mm 4 mps 739 mmHg 85%
    12:00 +23°C° 0.7 mm 4 mps 739 mmHg 85%
    13:00 +23°C° 0.7 mm 4 mps 738 mmHg 84%
    14:00 +23°C° 0.7 mm 4 mps 738 mmHg 84%
    15:00 +23°C° 0.4 mm 4 mps 738 mmHg 83%
    16:00 +23°C° 0.4 mm 4 mps 738 mmHg 81%
    17:00 +24°C° 0.4 mm 3 mps 738 mmHg 80%
    18:00 +22°C° 0 mm 3 mps 738 mmHg 84%
    19:00 +21°C° 0 mm 2 mps 738 mmHg 87%
    20:00 +20°C° 0 mm 2 mps 738 mmHg 91%
    21:00 +19°C° 0 mm 2 mps 738 mmHg 93%
    22:00 +19°C° 0 mm 2 mps 738 mmHg 95%
    23:00 +18°C° 0 mm 2 mps 738 mmHg 97%

    20 July, Friday

    Time Temperature Precipitation Wind Pressure Humidity
    00:00 +18°C° 0 mm 2 mps 738 mmHg 98%
    01:00 +17°C° 0 mm 2 mps 738 mmHg 98%
    02:00 +18°C° 0 mm 1 mps 738 mmHg 98%
    03:00 +18°C° 0 mm 1 mps 738 mmHg 98%
    04:00 +18°C° 0 mm 1 mps 738 mmHg 98%
    05:00 +19°C° 0 mm 1 mps 738 mmHg 98%
    06:00 +20°C° 0 mm 1 mps 738 mmHg 95%
    07:00 +21°C° 0 mm 1 mps 738 mmHg 92%
    08:00 +22°C° 0 mm 1 mps 738 mmHg 89%
    09:00 +23°C° 0.4 mm 1 mps 738 mmHg 87%
    10:00 +24°C° 0.4 mm 1 mps 738 mmHg 86%
    11:00 +24°C° 0.4 mm 1 mps 738 mmHg 84%
    12:00 +25°C° 0.8 mm 1 mps 738 mmHg 81%
    13:00 +26°C° 0.8 mm 1 mps 738 mmHg 78%
    14:00 +26°C° 0.8 mm 1 mps 738 mmHg 76%
    15:00 +27°C° 0.6 mm 1 mps 738 mmHg 75%
    16:00 +27°C° 0.6 mm 1 mps 738 mmHg 74%
    17:00 +27°C° 0.6 mm 1 mps 738 mmHg 74%
    18:00 +25°C° 0.4 mm 1 mps 738 mmHg 80%
    19:00 +22°C° 0.4 mm 0 mps 738 mmHg 85%
    20:00 +20°C° 0.4 mm 0 mps 738 mmHg 91%
    21:00 +20°C° 0 mm 0 mps 738 mmHg 92%
    22:00 +19°C° 0 mm 0 mps 738 mmHg 94%
    23:00 +18°C° 0 mm 0 mps 738 mmHg 95%

    21 July, Saturday

    Time Temperature Precipitation Wind Pressure Humidity
    00:00 +18°C° 0 mm 0 mps 738 mmHg 95%
    01:00 +18°C° 0 mm 0 mps 738 mmHg 96%
    02:00 +18°C° 0 mm 0 mps 738 mmHg 96%
    03:00 +18°C° 0.1 mm 0 mps 738 mmHg 96%
    04:00 +18°C° 0.1 mm 0 mps 738 mmHg 96%
    05:00 +18°C° 0.1 mm 0 mps 738 mmHg 97%
    06:00 +19°C° 0.3 mm 0 mps 738 mmHg 94%
    07:00 +21°C° 0.3 mm 0 mps 738 mmHg 91%
    08:00 +24°C° 0.3 mm 1 mps 738 mmHg 88%
    09:00 +23°C° 0.6 mm 0 mps 738 mmHg 83%
    10:00 +25°C° 0.6 mm 0 mps 738 mmHg 78%
    11:00 +26°C° 0.6 mm 0 mps 738 mmHg 72%
    12:00 +26°C° 0.5 mm 0 mps 738 mmHg 70%
    13:00 +29°C° 0.5 mm 1 mps 738 mmHg 67%
    14:00 +29°C° 0.5 mm 1 mps 738 mmHg 64%
    15:00 +29°C° 0.4 mm 1 mps 737 mmHg 65%
    16:00 +29°C° 0.4 mm 1 mps 737 mmHg 66%
    17:00 +29°C° 0.4 mm 1 mps 737 mmHg 67%
    18:00 +27°C° 0.5 mm 1 mps 737 mmHg 75%
    19:00 +25°C° 0.5 mm 1 mps 737 mmHg 82%
    20:00 +23°C° 0.5 mm 1 mps 737 mmHg 89%
    21:00 +23°C° 0 mm 1 mps 737 mmHg 91%
    22:00 +22°C° 0 mm 1 mps 737 mmHg 92%
    23:00 +19°C° 0 mm 0 mps 737 mmHg 94%
    Show more